Location: Bach
(48.6575°N, 8.1666°E)
Time: 13:18:03
(UTC+00:00)

Daily predictions for brighter satellites

Satellite Brightness Start Highest point End
(mag) Time Altitude Azimuth Time Altitude Azimuth Time Altitude Azimuth
Cosmos 372 Rocket 4.0 18:17:35 10° NNW 18:22:47 82° ENE 18:28:00 10° SSE
ADEOS 3.6 18:19:02 10° SSE 18:24:14 75° ENE 18:29:28 10° NNW
Cosmos 841 Rocket 3.6 18:19:40 10° S 18:24:41 51° ESE 18:29:42 10° NNE
Intercosmos 24 3.9 18:22:53 10° NNW 18:26:26 76° W 18:30:20 10° S
PAYLOAD B 4.5 18:22:17 10° SE 18:27:41 53° ENE 18:33:08 10° N
Cosmos 1328 Rocket 4.5 18:25:27 10° N 18:29:11 28° ENE 18:32:54 10° SE
Meteor 1-4 Rocket 4.0 18:28:49 10° NE 18:29:57 12° ENE 18:31:05 10° E
Aureole 1 Rocket 3.6 18:26:08 10° NNW 18:30:41 58° WSW 18:34:15 10° S
USA 308 2.2 18:30:23 10° N 18:30:53 12° NNE 18:31:31 10° ENE
Cosmos 1674 3.6 18:29:02 10° NNE 18:31:50 24° ENE 18:34:37 10° SE
Cosmos 1743 3.0 18:29:49 10° SSE 18:33:08 37° E 18:36:28 10° NNE
CZ-4B DEB 4.2 18:27:47 10° SSE 18:33:17 73° ENE 18:38:47 10° NNW
SeaSat 1 4.4 18:31:46 10° NNE 18:36:10 33° NW 18:40:32 10° WSW
Tsikada Rocket 4.0 18:30:00 10° N 18:36:17 76° E 18:42:35 10° SSE
Cosmos 2278 Rocket 3.3 18:31:32 10° NNW 18:36:21 28° NE 18:41:07 10° ESE
Cosmos 540 Rocket 4.2 18:31:24 10° SW 18:36:25 58° WNW 18:41:28 10° NNE
NOSS 2-1 (C) 4.3 18:34:11 10° NNW 18:37:26 32° NE 18:41:26 11° ESE
Meteor 1-18 Rocket 4.4 18:33:00 10° N 18:38:56 67° ENE 18:44:47 10° SSE
Genesis I 3.0 18:37:20 10° SW 18:40:46 81° NW 18:44:17 10° NE
CZ-4B R/B 2.7 18:37:14 10° SSE 18:40:57 65° ENE 18:44:53 10° N
CZ-4B R/B 3.5 18:35:42 10° SE 18:40:59 50° ENE 18:46:12 10° N
Iridium 4 Rocket 3.1 18:37:00 10° N 18:41:11 54° E 18:45:14 10° SSE
Cosmos 2016 Rocket 4.1 18:37:49 10° S 18:43:56 81° W 18:50:05 10° N
Resurs 1-3 4.0 18:40:45 10° S 18:45:03 68° WSW 18:49:24 10° NNW
USA 290 4.2 18:43:13 10° NNE 18:45:20 16° NE 18:47:00 12° E
TSX-5 4.0 18:43:24 10° NNW 18:46:21 35° NE 18:48:41 14° ESE
CARTOSAT-1 3.7 18:42:37 10° SSE 18:46:45 52° ENE 18:50:54 10° N
SPOT 5 4.2 18:45:10 12° ESE 18:48:18 21° ENE 18:51:45 10° NNE
SPOT 1/Viking Rocket 3.8 18:43:25 10° S 18:48:36 76° WSW 18:53:47 10° NNW
NOSS 8 (A) 4.4 18:47:06 10° SW 18:51:11 75° SE 18:54:23 10° NE
ATLAS 2AS CENTAUR R/B 3.9 18:46:10 10° WSW 18:53:05 45° NW 18:59:46 10° NE
USA 306 4.0 18:52:01 10° SSE 18:54:00 15° SE 18:54:09 15° SE
Cosmos 1898 Rocket 4.5 18:50:46 10° NNW 18:55:53 49° WSW 19:00:57 10° S
ATLAS CENTAUR R/B 3.7 18:51:15 10° WNW 18:55:59 45° SW 19:03:12 10° SSE
ARGOS Delta rocket 4.0 18:52:00 10° SSE 18:57:12 88° E 19:02:10 10° N
USA 215 4.4 18:53:07 10° E 18:57:23 18° ESE 19:01:38 10° SSE
Cosmos 1151 Rocket 3.5 18:53:10 10° NNW 18:57:24 63° W 19:01:35 10° S
Cosmos 2360 Rocket 2.8 18:52:31 10° SW 18:58:05 61° WNW 19:03:42 10° NNE
Okean O Rocket 2.1 18:54:28 11° SE 18:58:24 41° ENE 19:02:34 10° N
Cosmos 1340 2.3 18:57:04 10° SSW 19:00:20 86° WNW 19:03:37 10° N
USA 186 1.7 18:58:47 10° SSE 19:01:58 81° ENE 19:05:12 10° N
Resurs 01 Rocket 1.6 18:58:29 10° SSE 19:02:55 77° ENE 19:07:22 10° N
Cosmos 2237 Rocket 3.4 19:04:46 15° SE 19:06:59 19° E 19:10:47 10° ENE
Cosmos 2322 Rocket 3.5 19:01:40 10° SW 19:07:07 44° NW 19:12:36 10° NNE
Helios 1A 3.3 19:05:04 10° N 19:09:07 67° WNW 19:13:08 10° SSW
Cosmos 1814 Rocket 4.3 19:06:02 10° S 19:11:02 44° ESE 19:16:01 10° NE
ACS3 Solar Sail 2.1 19:05:10 10° SE 19:11:21 54° ENE 19:17:33 10° N
BlueWalker 3 1.9 19:09:38 10° WNW 19:13:24 71° NNE 19:15:32 24° ESE
NOSS 2-1 (E) 3.6 19:09:54 10° NW 19:13:33 58° NE 19:16:32 21° ESE
Cosmos 44 Rocket 3.3 19:09:03 10° NW 19:13:49 74° SW 19:17:37 15° SSE
Okean-O 3.3 19:12:12 20° ESE 19:14:36 35° ENE 19:18:38 10° N
Cosmos 2333 Rocket 3.2 19:09:28 10° SW 19:15:05 50° NW 19:20:43 10° NNE
Cosmos 1515 Rocket 4.1 19:11:15 10° N 19:15:19 38° ENE 19:17:32 22° SE
SL-08 R/B 4.3 19:11:42 10° N 19:16:28 52° WNW 19:21:13 10° SW
Feng Yun 1-1 Rocket 4.3 19:10:48 10° SSE 19:16:32 88° ENE 19:22:26 10° NNW
ATLAS 3B R/B 4.4 19:11:20 10° NW 19:18:18 36° WSW 19:25:06 10° S
Cosmos 2219 Rocket 2.4 19:13:16 10° SSW 19:18:56 75° WNW 19:24:39 10° NNE
CSL-04 Rocket 3.7 19:17:44 10° SSE 19:23:08 87° WSW 19:28:31 10° NNW
NOSS 2-1 (D) 3.4 19:19:54 10° NW 19:23:35 73° NE 19:26:15 25° SE
BREEZE-M DEB (TANK) 1.6 19:22:27 10° WSW 19:24:29 73° SSE 19:25:16 38° E
Cosmos 1842 2.9 19:22:09 10° N 19:25:46 73° E 19:27:54 23° SSE
Cosmos 1766 Rocket 3.5 19:27:50 10° S 19:32:10 85° W 19:36:35 10° N
USA 267 3.8 19:29:00 16° E 19:34:05 51° NNE 19:40:24 10° WNW
DELTA 2 DEB (DPAF) 4.5 19:31:12 10° NNE 19:35:05 37° E 19:36:00 33° SE
Cosmos 1980 4.3 19:30:21 10° SSE 19:35:21 33° ESE 19:40:22 10° NE
Cosmos 2369 Rocket 4.2 19:33:31 10° N 19:36:55 16° NE 19:39:53 11° ENE
BREEZE-M R/B 4.0 19:33:18 10° W 19:37:48 88° S 19:49:01 18° ESE
Meteor 2-17 Rocket 4.4 19:32:55 10° N 19:39:01 88° E 19:44:32 13° S
Cosmos 2322 3.7 19:34:04 10° SSW 19:39:43 90° NW 19:45:25 10° NNE
Meteor 1-13 Rocket 4.4 19:33:58 10° N 19:39:50 58° ENE 19:43:01 27° SE
USA 276 1.8 19:38:36 10° WNW 19:41:23 64° N 19:41:31 62° NNE
Cosmos 1400 Rocket 3.9 19:39:02 10° NNW 19:42:41 41° W 19:46:15 10° SSW
Spot 2 Rocket 4.4 19:41:51 27° E 19:43:08 30° ENE 19:47:30 10° N
MOS 1 4.2 19:42:10 23° SSE 19:45:49 74° ENE 19:51:31 10° NNW
PSLV R/B 3.5 19:44:57 38° SSE 19:46:15 89° E 19:49:51 10° NNW
Cosmos 1707 2.6 19:43:45 10° NNW 19:47:19 75° W 19:48:45 34° S
Cosmos 1315 Rocket 3.2 19:44:11 10° N 19:47:58 41° ENE 19:48:16 40° E
CZ-4 R/B 3.6 19:45:11 10° SW 19:48:11 22° W 19:51:14 10° NW
Meteor 2-10 4.2 19:44:16 17° SSE 19:48:22 56° E 19:53:56 10° NNE
Cosmos 1733 2.9 19:49:19 57° E 19:49:19 57° E 19:52:41 10° NNE
Cosmos 1891 Rocket 4.5 19:43:17 10° S 19:49:21 83° W 19:55:33 10° N
Cosmos 1726 4.3 19:47:23 10° SW 19:49:35 20° WNW 19:51:47 10° NNW
In-Cosmos 22 4.2 19:44:18 10° N 19:50:03 72° ENE 19:53:04 29° SSE
Cosmos 1570 Rocket 4.5 19:49:52 35° SE 19:50:48 38° ESE 19:55:40 10° NE
Cosmos 1408 Rocket 3.7 19:50:28 43° SE 19:51:12 48° E 19:55:27 10° NNE
Cosmos 1536 2.5 19:55:08 33° S 19:56:44 87° ESE 20:00:35 10° N
Lacrosse 4 Rocket 2.8 19:54:07 10° NW 19:58:04 35° WSW 20:00:26 20° SSW
COSMOS 2428 2.8 19:53:05 10° SSW 19:58:48 80° WNW 20:04:34 10° NNE
Cosmos 1818 4.0 19:53:50 10° SW 19:59:15 64° NW 20:04:44 10° NE
Meteor 1-23 Rocket 4.4 19:56:17 10° N 20:01:47 52° ENE 20:03:21 40° ESE
Nadezhda 4 Rocket 3.9 19:55:32 10° N 20:01:48 86° E 20:05:35 26° S
Meteor 1-4 Rocket 3.6 19:59:32 10° NW 20:01:54 27° W 20:02:22 26° WSW
Cosmos 1356 Rocket 3.8 19:57:47 10° NNW 20:01:55 61° W 20:03:50 30° SSW
Cosmos 1092 Rocket 4.3 19:57:46 10° N 20:03:54 50° ENE 20:05:51 38° ESE
Cosmos 1943 Rocket 2.1 19:59:13 10° NNW 20:04:44 70° ENE 20:06:28 44° SE
SL-14 R/B 4.0 20:06:11 10° N 20:09:04 37° NE 20:09:04 37° NE
Terra 1.9 20:09:10 51° ESE 20:09:50 57° ENE 20:14:28 10° N
USA 59 Rocket 0.7 20:06:41 10° NW 20:10:30 51° SW 20:11:54 38° S
Cosmos 2026 Rocket 4.1 20:04:31 10° N 20:10:43 57° ENE 20:12:32 42° SE
Cosmos 1464 Rocket 4.1 20:05:30 10° SSW 20:11:47 81° W 20:18:12 10° N
Cosmos 158 Rocket 4.2 20:13:21 44° ENE 20:13:21 44° ENE 20:17:17 10° NNE
Meteor 1-11 Rocket 3.6 20:09:42 19° S 20:13:49 84° E 20:19:25 10° NNE
Cosmos 1805 Rocket 3.9 20:14:26 48° ENE 20:14:26 48° ENE 20:18:03 10° NNE
CRYOSAT 2 4.2 20:10:22 10° N 20:15:17 70° E 20:16:10 56° SSE
Ariane Rocket 3.3 20:14:46 45° E 20:15:18 47° ENE 20:20:10 10° N
Cosmos 1125 Rocket 3.4 20:12:15 10° NNW 20:17:29 90° ENE 20:18:45 53° SSE
SPOT 3 Rocket 3.8 20:17:15 46° E 20:17:48 48° ENE 20:22:44 10° N
Cosmos 1634 Rocket 4.3 20:17:05 42° ESE 20:17:53 45° E 20:23:49 10° NNE
Cosmos 839 Rocket 4.5 20:11:08 10° SSW 20:19:52 65° ESE 20:26:49 10° NE
USA 290 3.4 20:16:50 10° NW 20:19:43 38° W 20:19:43 38° W
ERS-1 Rocket 2.8 20:19:35 56° SSE 20:20:41 83° ENE 20:25:45 10° NNW
Cosmos 2278 Rocket 2.4 20:15:16 10° NNW 20:20:53 64° WSW 20:22:57 38° S
Meteor 2-9 Rocket 3.9 20:20:43 36° S 20:22:59 85° E 20:28:25 10° NNE
BREEZE-M DEB (TANK) 4.2 20:19:58 10° W 20:23:24 85° N 20:26:06 38° E
SPOT 5 3.3 20:24:19 35° SSW 20:26:02 55° W 20:30:32 10° NNW
IRS-1A Rocket 4.3 20:25:48 42° S 20:27:55 80° WSW 20:33:42 10° NNW
Cosmos 2034 Rocket 3.9 20:26:34 24° S 20:30:34 85° W 20:36:48 10° N
Celestis-02/Orion 38 4.4 20:29:03 10° NNE 20:34:00 67° ESE 20:34:00 67° ESE
Okean O Rocket 3.6 20:31:49 13° SW 20:34:48 24° W 20:38:25 10° NW
Cosmos 2208 Rocket 4.0 20:35:48 65° E 20:35:48 65° E 20:40:46 10° NNE
Cosmos 1627 Rocket 4.4 20:29:14 10° N 20:35:36 83° E 20:37:10 54° SSE
NOSS 0 Rocket 4.1 20:33:12 10° SW 20:39:25 71° WNW 20:45:42 10° NNE
Resurs 01 Rocket 4.4 20:37:48 10° WSW 20:39:53 13° W 20:41:58 10° WNW
USA 215 3.1 20:34:49 10° ENE 20:41:18 62° SE 20:47:46 10° SW
Cosmos 1656 Rocket 4.2 20:40:37 10° NNW 20:46:03 44° NE 20:46:20 44° ENE
Meteor 1-21 4.1 20:41:25 10° N 20:47:11 81° ENE 20:47:41 73° SE
MOS 1 Rocket 4.1 20:45:59 40° SW 20:47:12 49° W 20:52:14 10° NNW
Cosmos 2228 Rocket 3.8 20:42:59 10° N 20:46:31 47° NNE 20:46:31 47° NNE
Meteor 2-12 Rocket 4.3 20:42:25 10° N 20:48:37 84° E 20:49:33 66° SSE
Cosmos 2237 Rocket 2.2 20:46:17 19° SW 20:50:22 77° WNW 20:56:02 10° NNE
Okean-O 4.3 20:49:39 23° SW 20:51:01 27° W 20:54:49 10° NW
BlueWalker 3 4.0 20:47:58 10° W 20:49:46 21° W 20:49:46 21° W
Cosmos 2297 4.2 20:48:19 10° NNW 20:53:44 45° NE 20:53:48 45° NE
Aureole 3 Rocket 4.3 20:47:44 16° SSW 20:53:57 67° W 20:59:26 10° N
ACS3 Solar Sail 3.4 20:50:27 11° SSW 20:55:42 31° W 21:01:19 10° NNW
Sich 1 3.7 20:57:04 51° WNW 20:57:04 51° WNW 21:01:05 10° N
Cosmos 2279 Rocket 3.9 21:06:50 67° ENE 21:06:50 67° ENE 21:12:44 10° NNE
BREEZE-M DEB (TANK) 3.3 20:56:03 10° W 21:10:22 88° N 21:10:46 78° E
USA 267 3.1 21:16:21 76° SSE 21:16:52 83° SW 21:23:28 10° WNW
Spot 2 Rocket 4.4 21:21:59 41° W 21:21:59 41° W 21:26:42 10° NNW
Cosmos 2369 Rocket 2.6 21:16:34 10° NNW 21:21:39 55° NNE 21:21:39 55° NNE
NOSS 3-3 (A) 4.2 21:25:46 53° NE 21:25:46 53° NE 21:30:42 10° NE
SL-16 R/B 3.1 21:49:08 41° NNE 21:49:08 41° NNE 21:52:47 10° NNE
Terra 3.9 21:47:52 19° W 21:47:52 19° W 21:51:10 10° NW
Cosmos 1943 Rocket 4.0 21:43:56 10° NW 21:47:54 20° W 21:47:58 20° WSW
NOSS 3-4 (A) 3.7 21:41:12 10° NW 21:47:59 82° NE 21:47:59 82° NE
NOSS 3-4 (C) 3.7 21:41:18 10° NW 21:48:05 82° NE 21:48:05 82° NE
Cosmos 2266 Rocket 4.2 21:50:06 10° N 21:55:29 68° NNW 21:55:29 68° NNW
Cosmos 1655 Rocket 4.4 22:10:46 10° N 22:15:58 62° NNW 22:15:58 62° NNW
USA 215 3.6 22:17:55 10° NE 22:24:20 60° NNW 22:30:45 10° W
ATLAS 2AS CENTAUR R/B 4.4 22:33:08 10° NW 22:38:59 28° NNE 22:43:40 14° ENE
Cosmos 2369 Rocket 4.2 23:01:12 10° NW 23:03:25 20° WNW 23:03:25 20° WNW
Cosmos 1980 Rocket 4.5 23:25:56 10° N 23:29:46 18° NE 23:31:54 15° ENE
SL-16 R/B 4.2 23:30:58 20° NW 23:32:00 21° NW 23:36:15 10° N
